sat.trackr.live / text

‹ back to catalog

STARLINK-3665

NORAD 52098 · 2022-029L

PAYLOAD ACTIVE UNKNOWN

§ Identity

Operator
Country
US
Launch date
2022-03-19
Launch site
AFETR
Launch vehicle
Mass (kg)
RCS (m²)

Purposes: comms

External: N2YO · Heavens-Above · Gunter

§ Orbital elements

Epoch: 2026-09-19T15:23:01.209408Z

Period
93.85 min
Inclination
53.1612°
Eccentricity
0.0001530
Mean motion
15.34389167 rev/d
Perigee alt
461.7 km
Apogee alt
463.8 km
Semi-major
6,840.9 km
B*
1.2002e-5
RAAN
286.0792°
Arg perigee
59.6788°
Mean anomaly
300.4366°
Rev number
25,010

§ Raw data

STARLINK-36651 52098U 22029L   26262.64098622  .00000029  00000+0  12002-4 0  99932 52098  53.1612 286.0792 0001530  59.6788 300.4366 15.34389167250107

JSON: /api/v1/satellites/52098 · /tle

For live sub-satellite position, see the globe view (requires WebGL).

§ Visibility from observer

Set your observer location to see the next 7 days of passes ≥ 10°. The values pass through the URL so the page stays shareable.

No JS? Fill the form by hand. The geolocation button needs JavaScript.